Location: Unspecified
(0.0000°N, 0.0000°E)
Time: 00:22:15
(UTC+00:00)

deb Centaur AC-2 - Visible Passes

Search period start: 18 May 2026 00:00
Search period end: 28 May 2026 00:00
Orbit: 663 x 1631 km, 29.9° (Epoch: 17 May)

Date Brightness Start Highest point End Pass type
(mag) Time Alt. Az. Time Alt. Az. Time Alt. Az.
18 May ? 19:08:41 10° WNW 19:18:33 58° SSW 19:25:10 24° SE visible
18 May ? 21:08:23 10° WSW 21:13:24 20° SW 21:13:24 20° SW visible
19 May ? 05:01:32 11° SSW 05:06:06 33° SSE 05:10:25 10° E visible
19 May ? 18:32:50 10° WNW 18:42:33 64° SSW 18:52:01 12° SE visible
19 May ? 20:31:48 10° WSW 20:39:33 24° SSW 20:40:14 24° SSW visible
20 May ? 04:28:27 21° SSW 04:30:49 29° SSE 04:35:07 10° E visible
20 May ? 19:55:23 10° W 20:03:33 27° SSW 20:07:04 23° S visible
21 May ? 03:55:21 26° SSE 03:55:29 26° SSE 03:59:49 10° E visible
21 May ? 19:19:09 10° W 19:27:32 30° SSW 19:33:52 17° SSE visible
22 May ? 03:22:15 20° ESE 03:22:15 20° ESE 03:24:31 10° E visible
22 May ? 05:10:29 14° WSW 05:15:23 73° NNW 05:20:12 10° NE visible
22 May ? 18:43:04 10° W 18:51:32 33° SSW 19:00:26 10° SSE visible
22 May ? 20:45:07 10° SW 20:48:51 13° SSW 20:48:51 13° SSW visible
23 May ? 02:49:08 10° ESE 02:49:08 10° ESE 02:49:10 10° ESE visible
23 May ? 04:37:21 32° WSW 04:40:10 87° NNW 04:45:10 10° ENE visible
23 May ? 18:07:09 10° W 18:15:32 36° SSW 18:24:42 10° SE visible
23 May ? 20:08:14 10° SW 20:13:22 15° SSW 20:15:35 14° S visible
24 May ? 04:04:13 69° SSW 04:04:53 79° SSE 04:10:07 10° ENE visible
24 May ? 19:31:37 10° SW 19:37:16 16° SSW 19:42:18 11° SSE visible
25 May ? 03:31:02 50° E 03:31:02 50° E 03:35:03 10° ENE visible
25 May ? 05:19:51 10° W 05:24:25 24° NNW 05:28:25 10° NNE visible
25 May ? 18:55:13 10° WSW 19:01:12 18° SSW 19:07:26 10° SSE visible
26 May ? 02:57:50 24° ENE 02:57:50 24° ENE 02:59:56 10° ENE visible
26 May ? 04:46:03 19° WNW 04:49:09 29° NW 04:53:42 10° NNE visible
26 May ? 18:19:01 10° WSW 18:25:10 19° SSW 18:31:44 10° SSE visible
27 May ? 02:24:35 11° ENE 02:24:35 11° ENE 02:24:46 10° ENE visible
27 May ? 04:12:48 34° NW 04:13:51 37° NW 04:18:54 10° NNE visible
